{"data":{"norad_id":57603,"intl_designator":"2023-119B","name":"STARLINK-30223","alt_names":[],"object_type":"PAYLOAD","status":"ACTIVE","operator":null,"country":"US","launch_date":"2023-08-11","launch_site_code":"AFETR","launch_vehicle":null,"mission":null,"orbit_class":"UNKNOWN","rcs_meters":null,"size_class":null,"mass_kg":null,"dimensions":null,"purposes":["comms"],"wikipedia_slug":null,"has_3d_model":false,"image_url":null,"decayed_at":null,"tle_current":{"epoch":"2026-05-25T00:30:22.615776Z","epoch_age_seconds":76816,"freshness":"FRESH","line1":"1 57603U 23119B   26145.02109509  .00017040  00000+0  10501-2 0  9991","line2":"2 57603  43.0009  22.9764 0005281 230.9887 129.0488 15.09695459154603","mean_motion":15.09695459,"eccentricity":0.0005281,"inclination_deg":43.0009,"raan_deg":22.9764,"arg_perigee_deg":230.9887,"mean_anomaly_deg":129.0488,"bstar":0.0010501,"rev_number":15460,"period_min":95.383475615263,"perigee_km":533.47787541279,"apogee_km":540.78178023634,"semimajor_km":6915.2668278246,"source":"CELESTRAK","updated_at":"2026-05-25T13:38:18.335191Z"}}}